GSAT0210 (GALILEO 13)

Last updated on Fri Jun 19 2026 17:09:21 GMT+0000 (Coordinated Universal Time)

1 41550U 16030B 26169.22686126 .00000031 00000+0 00000+0 0 9994 2 41550 55.0944 221.6643 0005022 247.0655 112.9679 1.70473788 62688
UTC large
Height (km)
Speed (km/s)
/
Latitude / Longitude
Inclination (degrees)
Orbital Period (minutes)
Azimuth
Elevation
Range (km)
Doppler Factor

Next 0 passes for location: London (51.5072 / 0.1276)

No passes found over London.
GSAT0210 (GALILEO 13)